| time (UTC) | temp C | wind direction | speed KPH | gust KPH | rain 1hr cm | rain 24hr cm | rain mn cm | humidity % | barometer mb |
| 20260510231004 | 9 | 44 | 4.8 | 12.9 | 0.00 | 0.00 | 0.00 | 44 | 1020.2 |
| 20260510230004 | 9 | 341 | 3.2 | 16.1 | 0.00 | 0.00 | 0.00 | 45 | 1020.2 |
| 20260510225004 | 8 | 26 | 4.8 | 22.5 | 0.00 | 0.00 | 0.00 | 47 | 1020.1 |
| 20260510224004 | 10 | 21 | 4.8 | 12.9 | 0.00 | 0.00 | 0.00 | 46 | 1020.2 |
| 20260510223004 | 10 | 310 | 11.3 | 22.5 | 0.00 | 0.00 | 0.00 | 44 | 1020.1 |
| 20260510221004 | 10 | 356 | 6.4 | 12.9 | 0.00 | 0.00 | 0.00 | 48 | 1019.7 |
| 20260510220004 | 11 | 80 | 8.0 | 9.7 | 0.00 | 0.00 | 0.00 | 45 | 1019.7 |
| 20260510215004 | 11 | 325 | 6.4 | 16.1 | 0.00 | 0.00 | 0.00 | 46 | 1019.6 |
| 20260510213004 | 10 | 295 | 6.4 | 12.9 | 0.00 | 0.00 | 0.00 | 44 | 1019.4 |
| 20260510210004 | 10 | 340 | 4.8 | 20.9 | 0.00 | 0.00 | 0.00 | 45 | 1019.0 |
| 20260510205004 | 10 | 63 | 4.8 | 20.9 | 0.00 | 0.00 | 0.00 | 47 | 1018.9 |
| 20260510204004 | 10 | 339 | 4.8 | 16.1 | 0.00 | 0.00 | 0.00 | 44 | 1019.0 |
| 20260510203004 | 11 | 355 | 6.4 | 12.9 | 0.00 | 0.00 | 0.00 | 41 | 1019.0 |
| 20260510202004 | 9 | 335 | 4.8 | 19.3 | 0.00 | 0.00 | 0.00 | 45 | 1018.9 |
| 20260510201004 | 9 | 314 | 9.7 | 22.5 | 0.00 | 0.00 | 0.00 | 48 | 1019.0 |
| 20260510200003 | 10 | 1 | 3.2 | 16.1 | 0.00 | 0.00 | 0.00 | 48 | 1018.8 |
| 20260510194004 | 10 | 137 | 4.8 | 14.5 | 0.00 | 0.00 | 0.00 | 50 | 1018.6 |
| 20260510193005 | 9 | 333 | 4.8 | 20.9 | 0.00 | 0.00 | 0.00 | 52 | 1018.7 |
| 20260510192004 | 11 | 324 | 8.0 | 19.3 | 0.00 | 0.00 | 0.00 | 50 | 1018.5 |
| 20260510191004 | 10 | 215 | 8.0 | 16.1 | 0.00 | 0.00 | 0.00 | 51 | 1018.4 |
| 20260510190004 | 10 | 327 | 8.0 | 19.3 | 0.00 | 0.00 | 0.00 | 54 | 1018.5 |
| 20260510185004 | 8 | 46 | 4.8 | 19.3 | 0.00 | 0.00 | 0.00 | 59 | 1018.6 |
| 20260510184003 | 9 | 349 | 6.4 | 12.9 | 0.00 | 0.00 | 0.00 | 50 | 1018.2 |
| 20260510183004 | 10 | 38 | 4.8 | 11.3 | 0.00 | 0.00 | 0.00 | 51 | 1018.0 |
| 20260510181003 | 9 | 327 | 4.8 | 16.1 | 0.00 | 0.00 | 0.00 | 55 | 1017.8 |
| 20260510175004 | 10 | 6 | 4.8 | 14.5 | 0.00 | 0.00 | 0.00 | 56 | 1017.9 |
| 20260510174003 | 8 | 353 | 4.8 | 11.3 | 0.00 | 0.00 | 0.00 | 58 | 1017.8 |
| 20260510170003 | 8 | 58 | 3.2 | 12.9 | 0.00 | 0.00 | 0.00 | 54 | 1017.5 |
| 20260510165004 | 9 | 48 | 3.2 | 9.7 | 0.00 | 0.00 | 0.00 | 52 | 1017.4 |
| 20260510164003 | 9 | 21 | 4.8 | 14.5 | 0.00 | 0.00 | 0.00 | 46 | 1017.2 |
| 20260510162004 | 8 | 207 | 8.0 | 19.3 | 0.00 | 0.00 | 0.00 | 51 | 1017.3 |
| 20260510161004 | 8 | 335 | 3.2 | 8.0 | 0.00 | 0.00 | 0.00 | 50 | 1017.0 |
| 20260510155003 | 9 | 15 | 6.4 | 16.1 | 0.00 | 0.00 | 0.00 | 49 | 1017.0 |
| 20260510154003 | 8 | 324 | 4.8 | 16.1 | 0.00 | 0.00 | 0.00 | 49 | 1016.7 |
| 20260510153004 | 8 | 261 | 9.7 | 22.5 | 0.00 | 0.00 | 0.00 | 50 | 1016.6 |
| 20260510151003 | 8 | 269 | 9.7 | 24.1 | 0.00 | 0.00 | 0.00 | 51 | 1016.7 |
| 20260510150004 | 8 | 230 | 8.0 | 19.3 | 0.00 | 0.00 | 0.00 | 52 | 1016.6 |
| 20260510145004 | 7 | 274 | 8.0 | 14.5 | 0.00 | 0.00 | 0.00 | 55 | 1016.5 |
| 20260510144004 | 7 | 266 | 4.8 | 11.3 | 0.00 | 0.00 | 0.00 | 56 | 1016.7 |
| 20260510143003 | 6 | 294 | 4.8 | 16.1 | 0.00 | 0.00 | 0.00 | 59 | 1016.8 |
| 20260510142004 | 6 | 356 | 4.8 | 9.7 | 0.00 | 0.00 | 0.00 | 61 | 1016.5 |
| 20260510141004 | 5 | 326 | 3.2 | 8.0 | 0.00 | 0.00 | 0.00 | 64 | 1016.8 |
| 20260510140004 | 5 | 294 | 4.8 | 9.7 | 0.00 | 0.00 | 0.00 | 65 | 1016.6 |
| 20260510135004 | 5 | 301 | 4.8 | 9.7 | 0.00 | 0.00 | 0.00 | 65 | 1016.5 |
| 20260510133004 | 4 | 313 | 1.6 | 4.8 | 0.00 | 0.00 | 0.00 | 67 | 1016.6 |
| 20260510131004 | 4 | 339 | 4.8 | 11.3 | 0.00 | 0.00 | 0.00 | 66 | 1016.4 |
| 20260510130004 | 4 | 283 | 1.6 | 8.0 | 0.00 | 0.00 | 0.00 | 67 | 1016.3 |
| 20260510125004 | 4 | 298 | 1.6 | 4.8 | 0.00 | 0.00 | 0.00 | 67 | 1016.3 |
| 20260510121003 | 2 | 280 | 3.2 | 8.0 | 0.00 | 0.00 | 0.00 | 72 | 1016.0 |
| 20260510120004 | 0 | 53 | 0.0 | 3.2 | 0.00 | 0.00 | 0.00 | 78 | 1015.9 |
| 20260510115004 | 0 | 312 | 1.6 | 3.2 | 0.00 | 0.00 | 0.00 | 80 | 1015.8 |
| 20260510114003 | -1 | 290 | 1.6 | 3.2 | 0.00 | 0.00 | 0.00 | 83 | 1015.9 |
| 20260510113004 | -2 | 304 | 1.6 | 3.2 | 0.00 | 0.00 | 0.00 | 85 | 1015.7 |
| 20260510112004 | -2 | 344 | 1.6 | 1.6 | 0.00 | 0.00 | 0.00 | 86 | 1015.6 |
| 20260510111004 | -2 | 338 | 0.0 | 1.6 | 0.00 | 0.00 | 0.00 | 86 | 1015.6 |
| 20260510105003 | -2 | 325 | 1.6 | 3.2 | 0.00 | 0.00 | 0.00 | 86 | 1015.4 |
| 20260510104004 | -2 | 297 | 0.0 | 1.6 | 0.00 | 0.00 | 0.00 | 85 | 1015.5 |
| 20260510103004 | -2 | 318 | 0.0 | 1.6 | 0.00 | 0.00 | 0.00 | 84 | 1015.1 |
| 20260510102003 | -2 | 309 | 0.0 | 1.6 | 0.00 | 0.00 | 0.00 | 83 | 1015.1 |
| 20260510101004 | -2 | 304 | 0.0 | 3.2 | 0.00 | 0.00 | 0.00 | 82 | 1015.0 |
| 20260510094004 | -2 | 311 | 0.0 | 1.6 | 0.00 | 0.00 | 0.00 | 82 | 1014.8 |
| 20260510093004 | -2 | 270 | 1.6 | 3.2 | 0.00 | 0.00 | 0.00 | 79 | 1014.6 |
| 20260510092003 | -1 | 295 | 1.6 | 3.2 | 0.00 | 0.00 | 0.00 | 78 | 1014.7 |
| 20260510091003 | -1 | 289 | 1.6 | 3.2 | 0.00 | 0.00 | 0.00 | 78 | 1014.5 |
| 20260510085004 | 0 | 298 | 0.0 | 3.2 | 0.00 | 0.00 | 0.00 | 75 | 1014.4 |
| 20260510084003 | 0 | 308 | 1.6 | 4.8 | 0.00 | 0.00 | 0.00 | 73 | 1014.4 |
| 20260510083004 | 0 | 308 | 1.6 | 3.2 | 0.00 | 0.00 | 0.00 | 73 | 1014.2 |
| 20260510082004 | 0 | 296 | 1.6 | 3.2 | 0.00 | 0.00 | 0.00 | 75 | 1014.1 |
| 20260510080004 | -1 | 299 | 1.6 | 3.2 | 0.00 | 0.00 | 0.00 | 74 | 1014.0 |
| 20260510075003 | 0 | 335 | 1.6 | 3.2 | 0.00 | 0.00 | 0.00 | 72 | 1014.0 |
| 20260510074004 | 0 | 337 | 1.6 | 3.2 | 0.00 | 0.00 | 0.00 | 72 | 1013.7 |
| 20260510072004 | 0 | 340 | 1.6 | 3.2 | 0.00 | 0.00 | 0.00 | 71 | 1013.6 |
| 20260510071004 | 0 | 328 | 1.6 | 4.8 | 0.00 | 0.00 | 0.00 | 68 | 1013.4 |
| 20260510070004 | 0 | 277 | 1.6 | 4.8 | 0.00 | 0.00 | 0.00 | 70 | 1013.4 |
| 20260510065004 | 0 | 44 | 0.0 | 8.0 | 0.00 | 0.00 | 0.00 | 69 | 1013.5 |
| 20260510064004 | -1 | 357 | 1.6 | 3.2 | 0.00 | 0.00 | 0.00 | 74 | 1013.2 |
| 20260510063003 | -1 | 327 | 1.6 | 3.2 | 0.00 | 0.00 | 0.00 | 71 | 1013.3 |
| 20260510062004 | -1 | 291 | 0.0 | 3.2 | 0.00 | 0.00 | 0.00 | 71 | 1013.2 |
| 20260510060004 | -1 | 303 | 0.0 | 1.6 | 0.00 | 0.00 | 0.00 | 68 | 1012.9 |
| 20260510055004 | -1 | 312 | 1.6 | 3.2 | 0.00 | 0.00 | 0.00 | 68 | 1013.0 |
| 20260510054004 | 0 | 321 | 1.6 | 1.6 | 0.00 | 0.00 | 0.00 | 67 | 1012.9 |
| 20260510053004 | -1 | 327 | 0.0 | 3.2 | 0.00 | 0.00 | 0.00 | 67 | 1012.7 |
| 20260510052003 | 0 | 0 | 0.0 | 1.6 | 0.00 | 0.00 | 0.00 | 66 | 1012.7 |
| 20260510051005 | 0 | 16 | 0.0 | 3.2 | 0.00 | 0.00 | 0.00 | 65 | 1012.8 |
| 20260510050004 | 0 | 287 | 0.0 | 3.2 | 0.00 | 0.00 | 0.00 | 63 | 1012.7 |
| 20260510045004 | 0 | 310 | 0.0 | 1.6 | 0.00 | 0.00 | 0.00 | 62 | 1012.7 |
| 20260510043004 | 1 | 6 | 1.6 | 3.2 | 0.00 | 0.00 | 0.00 | 60 | 1012.7 |
| 20260510042005 | 1 | 334 | 0.0 | 1.6 | 0.00 | 0.00 | 0.00 | 58 | 1012.5 |
| 20260510041004 | 1 | 2 | 0.0 | 1.6 | 0.00 | 0.00 | 0.00 | 57 | 1012.4 |
| 20260510040004 | 2 | 340 | 0.0 | 1.6 | 0.00 | 0.00 | 0.00 | 55 | 1012.3 |
| 20260510035003 | 2 | 346 | 0.0 | 1.6 | 0.00 | 0.00 | 0.00 | 54 | 1012.4 |
| 20260510034003 | 3 | 317 | 0.0 | 3.2 | 0.00 | 0.00 | 0.00 | 52 | 1012.4 |
| 20260510032004 | 2 | 29 | 1.6 | 3.2 | 0.00 | 0.00 | 0.00 | 54 | 1012.0 |
| 20260510031004 | 2 | 16 | 1.6 | 3.2 | 0.00 | 0.00 | 0.00 | 56 | 1012.0 |
| 20260510030004 | 2 | 327 | 1.6 | 3.2 | 0.00 | 0.00 | 0.00 | 53 | 1012.0 |
| 20260510025004 | 3 | 348 | 0.0 | 3.2 | 0.00 | 0.00 | 0.00 | 52 | 1012.0 |
| 20260510024004 | 3 | 2 | 0.0 | 3.2 | 0.00 | 0.00 | 0.00 | 51 | 1011.6 |
| 20260510023004 | 3 | 44 | 0.0 | 1.6 | 0.00 | 0.00 | 0.00 | 49 | 1011.7 |
| 20260510022004 | 4 | 317 | 0.0 | 3.2 | 0.00 | 0.00 | 0.00 | 47 | 1011.7 |
| 20260510021004 | 5 | 336 | 0.0 | 1.6 | 0.00 | 0.00 | 0.00 | 46 | 1011.4 |
| 20260510020004 | 5 | 0 | 1.6 | 3.2 | 0.00 | 0.00 | 0.00 | 44 | 1011.5 |
| 20260510015004 | 6 | 28 | 1.6 | 3.2 | 0.00 | 0.00 | 0.00 | 43 | 1011.0 |
| 20260510014004 | 6 | 28 | 1.6 | 8.0 | 0.00 | 0.00 | 0.00 | 42 | 1011.1 |
| 20260510013006 | 7 | 3 | 1.6 | 11.3 | 0.00 | 0.00 | 0.00 | 40 | 1010.6 |
| 20260510012004 | 7 | 300 | 4.8 | 11.3 | 0.00 | 0.00 | 0.00 | 39 | 1010.7 |
| 20260510005004 | 8 | 51 | 3.2 | 25.7 | 0.00 | 0.00 | 0.00 | 38 | 1010.3 |
| 20260510004004 | 8 | 306 | 4.8 | 19.3 | 0.00 | 0.00 | 0.00 | 39 | 1009.9 |
| 20260510003004 | 8 | 331 | 11.3 | 25.7 | 0.00 | 0.00 | 0.00 | 38 | 1010.0 |
| 20260510002003 | 9 | 309 | 12.9 | 32.2 | 0.00 | 0.00 | 0.00 | 39 | 1009.6 |
| 20260510001004 | 10 | 352 | 9.7 | 27.4 | 0.00 | 0.00 | 0.00 | 38 | 1009.5 |
| 20260510000004 | 11 | 27 | 6.4 | 27.4 | 0.00 | 0.00 | 0.00 | 39 | 1009.5 |
| 20260509235004 | 10 | 339 | 6.4 | 16.1 | 0.00 | 0.00 | 0.00 | 40 | 1009.1 |
| 20260509233004 | 10 | 350 | 4.8 | 19.3 | 0.00 | 0.00 | 0.00 | 40 | 1008.4 |
| 20260509232004 | 10 | 3 | 6.4 | 16.1 | 0.00 | 0.00 | 0.00 | 38 | 1008.1 |